This is the latest recevied weather packets stored in our database for station/object OK1OBR-13. If no packets are shown the sender has not sent any weather packets the latest 1 day(s).
| Time | Temp. | Humidity | Pressure | Rain* | Wind** | Luminosity | Snow |
|---|---|---|---|---|---|---|---|
| 1777983181 | 21.67° C | 44% | 930.1 hPa | 0 mm | 0.89 m/s, 187° | - | - |
| 1777983121 | 21.67° C | 44% | 930 hPa | 0 mm | 0.89 m/s, 204° | - | - |
| 1777983064 | 21.67° C | 43% | 929.8 hPa | 0 mm | 0.45 m/s, 177° | - | - |
| 1777983002 | 21.67° C | 42% | 929.8 hPa | 0 mm | 0.89 m/s, 208° | - | - |
| 1777982940 | 21.67° C | 45% | 929.9 hPa | 0 mm | 0.89 m/s, 189° | - | - |
| 1777982881 | 21.67° C | 45% | 929.8 hPa | 0 mm | 1.34 m/s, 212° | - | - |
| 1777982822 | 21.67° C | 44% | 929.9 hPa | 0 mm | 0.45 m/s, 233° | - | - |
| 1777982762 | 21.67° C | 42% | 929.8 hPa | 0 mm | 1.34 m/s, 213° | - | - |
| 1777982702 | 21.67° C | 42% | 929.9 hPa | 0 mm | 0.89 m/s, 151° | - | - |
| 1777982641 | 21.67° C | 44% | 929.9 hPa | 0 mm | 0 m/s | - | - |
| 1777982582 | 21.67° C | 42% | 929.8 hPa | 0 mm | 0.45 m/s, 216° | - | - |
| 1777982521 | 21.67° C | 43% | 929.8 hPa | 0 mm | 0.45 m/s, 217° | - | - |
| 1777982460 | 21.67° C | 41% | 930.1 hPa | 0 mm | 0.45 m/s, 217° | - | - |
| 1777982402 | 21.67° C | 43% | 930.1 hPa | 0 mm | 0.89 m/s, 199° | - | - |
| 1777982342 | 21.67° C | 44% | 930 hPa | 0 mm | 0.89 m/s, 214° | - | - |
| 1777982281 | 21.67° C | 43% | 929.9 hPa | 0 mm | 0.45 m/s, 209° | - | - |
| 1777982222 | 21.11° C | 43% | 929.9 hPa | 0 mm | 0 m/s | - | - |
| 1777982161 | 21.11° C | 48% | 929.8 hPa | 0 mm | 0.45 m/s, 230° | - | - |
| 1777982101 | 21.67° C | 47% | 930.2 hPa | 0 mm | 0.45 m/s, 170° | - | - |
| 1777982041 | 21.67° C | 43% | 930 hPa | 0 mm | 0.89 m/s, 184° | - | - |
| 1777981980 | 21.67° C | 43% | 930.1 hPa | 0 mm | 1.34 m/s, 203° | - | - |
| 1777981924 | 21.67° C | 42% | 929.9 hPa | 0 mm | 1.34 m/s, 187° | - | - |
| 1777981861 | 21.67° C | 46% | 930 hPa | 0 mm | 0.89 m/s, 211° | - | - |
| 1777981801 | 21.67° C | 46% | 930 hPa | 0 mm | 0.45 m/s, 186° | - | - |
| 1777981741 | 21.67° C | 44% | 929.9 hPa | 0 mm | 0.45 m/s, 142° | - | - |
* Rain since midnight (hover to see other rain measurements)
** Current wind speed in m/s (hover to see current wind gust speed)